User: anonymous   Login
Location: Ellerstadt
(49.4644°N, 8.2615°E)
Time: 21:56:42
(UTC+00:00)
Language:

Resurs 01 Rocket - Orbit

View from above orbital plane
View from above orbital plane
View from above satellite
View from above satellite

Ground track
Ground track

The orbit data is extracted from the following two-line orbital elements,

1 23343U 94074B   21134.63585632  .00000026  00000-0  10893-4 0  9991
2 23343  97.9489 189.7807 0007452 153.2917 359.6494 14.76878826427290
Epoch (UTC): 14 May 2021 15:15:37
Eccentricity: 0.0007452
inclination: 97.9489°
perigee height: 634 km
apogee height: 644 km
right ascension of ascending node: 189.7807°
argument of perigee: 153.2917°
revolutions per day: 14.76878826
mean anomaly at epoch: 359.6494°
orbit number at epoch: 42729

The dashed part of the orbit path shows where the satellite is in the earth's shadow,  

DLR